When you browse on this site, cookies collect data to enhance your experience and personalize the content and advertising you see.
Visit our Privacy Policy to learn more. By continuing to use the site, you agree to this use of cookies and data.
  • In Netherlands
  • List of Countries
  • For 7 days
  • Water Temperature
  • Weather Map
  • Weather Widgets
  • user-avatar
    Login

    Hourly Weather Kiustendil

    Today, 18 August, Sunday

    Time Temperature Precipitation Wind Pressure Humidity
    00:00 +9°C° 0 mm 1 mps 626 mmHg 70%
    01:00 +8°C° 0 mm 1 mps 626 mmHg 71%
    02:00 +8°C° 0 mm 1 mps 625 mmHg 72%
    03:00 +8°C° 0 mm 1 mps 625 mmHg 73%
    04:00 +7°C° 0 mm 1 mps 625 mmHg 74%
    05:00 +10°C° 0 mm 1 mps 626 mmHg 67%
    06:00 +12°C° 0 mm 1 mps 627 mmHg 60%
    07:00 +14°C° 0 mm 1 mps 628 mmHg 53%
    08:00 +16°C° 0 mm 1 mps 629 mmHg 47%
    09:00 +19°C° 0 mm 1 mps 629 mmHg 41%
    10:00 +21°C° 0 mm 1 mps 630 mmHg 34%
    11:00 +21°C° 0 mm 2 mps 630 mmHg 31%
    12:00 +23°C° 0 mm 2 mps 630 mmHg 28%
    13:00 +24°C° 0 mm 2 mps 630 mmHg 25%
    14:00 +24°C° 0 mm 2 mps 630 mmHg 25%
    15:00 +24°C° 0 mm 3 mps 630 mmHg 25%
    16:00 +22°C° 0 mm 3 mps 630 mmHg 26%
    17:00 +20°C° 0 mm 3 mps 629 mmHg 33%
    18:00 +17°C° 0 mm 2 mps 628 mmHg 41%
    19:00 +14°C° 0 mm 2 mps 627 mmHg 48%
    20:00 +14°C° 0 mm 2 mps 627 mmHg 49%
    21:00 +13°C° 0 mm 2 mps 627 mmHg 51%
    22:00 +12°C° 0 mm 1 mps 627 mmHg 52%
    23:00 +12°C° 0 mm 1 mps 627 mmHg 53%

    Tomorrow, 19 August, Monday

    Time Temperature Precipitation Wind Pressure Humidity
    00:00 +11°C° 0 mm 1 mps 627 mmHg 55%
    01:00 +11°C° 0 mm 1 mps 627 mmHg 57%
    02:00 +10°C° 0 mm 1 mps 626 mmHg 58%
    03:00 +10°C° 0 mm 1 mps 626 mmHg 58%
    04:00 +10°C° 0 mm 1 mps 626 mmHg 59%
    05:00 +12°C° 0 mm 1 mps 627 mmHg 54%
    06:00 +14°C° 0 mm 1 mps 628 mmHg 48%
    07:00 +16°C° 0 mm 1 mps 629 mmHg 42%
    08:00 +19°C° 0 mm 1 mps 630 mmHg 38%
    09:00 +20°C° 0 mm 2 mps 630 mmHg 33%
    10:00 +23°C° 0 mm 2 mps 631 mmHg 28%
    11:00 +24°C° 0 mm 2 mps 631 mmHg 27%
    12:00 +25°C° 0 mm 2 mps 631 mmHg 26%
    13:00 +26°C° 0 mm 3 mps 632 mmHg 25%
    14:00 +26°C° 0 mm 3 mps 631 mmHg 25%
    15:00 +26°C° 0 mm 3 mps 631 mmHg 26%
    16:00 +25°C° 0 mm 3 mps 631 mmHg 27%
    17:00 +22°C° 0 mm 3 mps 630 mmHg 33%
    18:00 +19°C° 0 mm 3 mps 629 mmHg 40%
    19:00 +16°C° 0 mm 2 mps 629 mmHg 46%
    20:00 +15°C° 0 mm 2 mps 628 mmHg 48%
    21:00 +14°C° 0 mm 2 mps 628 mmHg 50%
    22:00 +13°C° 0 mm 1 mps 628 mmHg 52%
    23:00 +13°C° 0 mm 1 mps 628 mmHg 54%

    Day after tomorrow, 20 August, Tuesday

    Time Temperature Precipitation Wind Pressure Humidity
    00:00 +12°C° 0 mm 1 mps 628 mmHg 55%
    01:00 +12°C° 0 mm 1 mps 628 mmHg 57%
    02:00 +12°C° 0 mm 1 mps 628 mmHg 58%
    03:00 +11°C° 0 mm 1 mps 628 mmHg 59%
    04:00 +11°C° 0 mm 1 mps 628 mmHg 60%
    05:00 +13°C° 0 mm 1 mps 629 mmHg 54%
    06:00 +15°C° 0 mm 1 mps 630 mmHg 49%
    07:00 +18°C° 0 mm 1 mps 631 mmHg 43%
    08:00 +19°C° 0 mm 2 mps 631 mmHg 38%
    09:00 +21°C° 0 mm 2 mps 632 mmHg 34%
    10:00 +24°C° 0 mm 3 mps 633 mmHg 29%
    11:00 +25°C° 0 mm 3 mps 633 mmHg 27%
    12:00 +26°C° 0 mm 4 mps 633 mmHg 26%
    13:00 +27°C° 0 mm 4 mps 633 mmHg 24%
    14:00 +27°C° 0 mm 4 mps 632 mmHg 25%
    15:00 +26°C° 0 mm 5 mps 632 mmHg 26%
    16:00 +26°C° 0 mm 5 mps 632 mmHg 27%
    17:00 +22°C° 0 mm 4 mps 631 mmHg 34%
    18:00 +20°C° 0 mm 4 mps 630 mmHg 40%
    19:00 +17°C° 0 mm 3 mps 630 mmHg 46%
    20:00 +16°C° 0 mm 3 mps 630 mmHg 48%
    21:00 +15°C° 0 mm 2 mps 630 mmHg 50%
    22:00 +14°C° 0 mm 2 mps 630 mmHg 52%
    23:00 +14°C° 0 mm 2 mps 629 mmHg 53%

    21 August, Wednesday

    Time Temperature Precipitation Wind Pressure Humidity
    00:00 +13°C° 0 mm 1 mps 629 mmHg 55%
    01:00 +13°C° 0 mm 1 mps 629 mmHg 57%
    02:00 +12°C° 0 mm 1 mps 629 mmHg 58%
    03:00 +12°C° 0 mm 1 mps 628 mmHg 59%
    04:00 +12°C° 0 mm 1 mps 628 mmHg 61%
    05:00 +13°C° 0 mm 1 mps 629 mmHg 55%
    06:00 +15°C° 0 mm 1 mps 630 mmHg 50%
    07:00 +18°C° 0 mm 1 mps 631 mmHg 45%
    08:00 +19°C° 0 mm 2 mps 631 mmHg 39%
    09:00 +21°C° 0 mm 2 mps 632 mmHg 34%
    10:00 +24°C° 0 mm 3 mps 632 mmHg 28%
    11:00 +25°C° 0 mm 3 mps 632 mmHg 26%
    12:00 +26°C° 0 mm 3 mps 632 mmHg 24%
    13:00 +27°C° 0 mm 3 mps 632 mmHg 22%
    14:00 +27°C° 0 mm 4 mps 632 mmHg 23%
    15:00 +27°C° 0 mm 4 mps 631 mmHg 24%
    16:00 +26°C° 0 mm 4 mps 631 mmHg 25%
    17:00 +22°C° 0 mm 4 mps 630 mmHg 31%
    18:00 +20°C° 0 mm 3 mps 630 mmHg 37%
    19:00 +17°C° 0 mm 3 mps 629 mmHg 43%
    20:00 +16°C° 0 mm 2 mps 629 mmHg 45%
    21:00 +15°C° 0 mm 2 mps 629 mmHg 47%
    22:00 +14°C° 0 mm 2 mps 629 mmHg 50%
    23:00 +14°C° 0 mm 1 mps 628 mmHg 52%

    22 August, Thursday

    Time Temperature Precipitation Wind Pressure Humidity
    00:00 +13°C° 0 mm 1 mps 628 mmHg 54%
    01:00 +13°C° 0 mm 1 mps 628 mmHg 56%
    02:00 +12°C° 0 mm 1 mps 628 mmHg 58%
    03:00 +12°C° 0 mm 1 mps 628 mmHg 60%
    04:00 +12°C° 0 mm 1 mps 627 mmHg 61%
    05:00 +14°C° 0 mm 1 mps 628 mmHg 56%
    06:00 +16°C° 0 mm 1 mps 629 mmHg 50%
    07:00 +19°C° 0 mm 1 mps 630 mmHg 45%
    08:00 +20°C° 0 mm 2 mps 631 mmHg 39%
    09:00 +22°C° 0 mm 3 mps 632 mmHg 33%
    10:00 +25°C° 0 mm 4 mps 632 mmHg 26%
    11:00 +26°C° 0 mm 4 mps 632 mmHg 25%
    12:00 +27°C° 0 mm 4 mps 632 mmHg 23%
    13:00 +28°C° 0 mm 4 mps 632 mmHg 21%
    14:00 +27°C° 0 mm 5 mps 632 mmHg 22%
    15:00 +27°C° 0 mm 5 mps 631 mmHg 23%
    16:00 +27°C° 0 mm 5 mps 631 mmHg 24%
    17:00 +23°C° 0 mm 5 mps 630 mmHg 29%
    18:00 +21°C° 0 mm 4 mps 630 mmHg 34%
    19:00 +18°C° 0 mm 3 mps 629 mmHg 40%
    20:00 +17°C° 0 mm 3 mps 629 mmHg 41%
    21:00 +17°C° 0 mm 2 mps 629 mmHg 42%
    22:00 +16°C° 0 mm 2 mps 629 mmHg 43%
    23:00 +16°C° 0 mm 2 mps 629 mmHg 43%

    23 August, Friday

    Time Temperature Precipitation Wind Pressure Humidity
    00:00 +15°C° 0 mm 1 mps 629 mmHg 44%
    01:00 +15°C° 0 mm 1 mps 629 mmHg 44%
    02:00 +14°C° 0 mm 1 mps 628 mmHg 46%
    03:00 +13°C° 0 mm 1 mps 628 mmHg 48%
    04:00 +13°C° 0 mm 1 mps 628 mmHg 50%
    05:00 +15°C° 0 mm 1 mps 629 mmHg 45%
    06:00 +18°C° 0 mm 1 mps 629 mmHg 41%
    07:00 +20°C° 0 mm 1 mps 630 mmHg 37%
    08:00 +21°C° 0 mm 2 mps 631 mmHg 33%
    09:00 +24°C° 0 mm 3 mps 632 mmHg 30%
    10:00 +26°C° 0 mm 4 mps 632 mmHg 26%
    11:00 +26°C° 0 mm 4 mps 632 mmHg 26%
    12:00 +27°C° 0 mm 4 mps 632 mmHg 25%
    13:00 +27°C° 0 mm 4 mps 632 mmHg 25%
    14:00 +27°C° 0 mm 4 mps 631 mmHg 27%
    15:00 +26°C° 0 mm 4 mps 631 mmHg 29%
    16:00 +25°C° 0 mm 4 mps 630 mmHg 31%
    17:00 +22°C° 0 mm 4 mps 630 mmHg 36%
    18:00 +20°C° 0 mm 3 mps 630 mmHg 41%
    19:00 +19°C° 0 mm 3 mps 629 mmHg 46%
    20:00 +18°C° 0 mm 3 mps 629 mmHg 48%
    21:00 +17°C° 0 mm 2 mps 629 mmHg 50%
    22:00 +16°C° 0 mm 2 mps 629 mmHg 53%
    23:00 +16°C° 0 mm 1 mps 629 mmHg 54%
    Show more